Tracking 26303 objects as of 1-Dec-2022
HD Live streaming from Space Station
objects crossing your sky now

AEROCUBE 15A

Track AEROCUBE 15A now!
10-day predictions


NORAD ID: 45118
Int'l Code: 2019-071H
Perigee: 367.0 km
Apogee: 382.3 km
Inclination: 51.6 °
Period: 91.9 minutes
Semi major axis: 6745 km
RCS: Unknown
Launch date: November 2, 2019
Source: United States (US)
Launch site: WALLOPS ISLAND (WLPIS)
aabbcc
Your satellite tracking list
Your tracking list is empty




NASA's NSSDC Master Catalog

Two Line Element Set (TLE):
1 45118U 19071H   22334.65303089  .00096314  00000-0  87953-3 0  9993
2 45118  51.6302 304.0122 0011352  73.5967 286.6276 15.66990319159303
Source of the keplerian elements: AFSPC